Regional Weather Roundup
Issued by NWS Sioux Falls, SD

Home | Current Version | Previous Version | Text Only | Print | Product List | Glossary On
Versions: 1 2 3 4 5 6 7 8 9 10 11 12 13 14 15 16 17 18 19 20 21 22 23 24 25 26 27 28 29 30 31 32 33 34 35 36 37 38 39 40 41 42 43 44 45 46 47 48 49 50
000
ASUS43 KFSD 281110
RWRFSD

WEATHER ROUNDUP FOR SE SOUTH DAKOTA/SW MINNESOTA/NW IOWA
NATIONAL WEATHER SERVICE SIOUX FALLS SD
600 AM CDT MON JUL 28 2014

NOTE: "FAIR" INDICATES FEW OR NO CLOUDS BELOW 12,000 FEET WITH NO
SIGNIFICANT WEATHER AND OR OBSTRUCTIONS TO VISIBILITY.


SDZ038>040-050-052>070-281200-
SOUTHEAST SOUTH DAKOTA

CITY           SKY/WX    TMP DP  RH WIND       PRES   REMARKS
CHAMBERLAIN    CLEAR     55  53  91 N7        30.31S
HURON          CLEAR     48  47  96 W5        30.29R
MADISON        CLOUDY    55  55 100 NW6       30.27R
MITCHELL       CLEAR     53  52  96 NW7       30.29S
SIOUX FALLS    CLOUDY    59  55  87 NW9       30.26R
WINNER         FAIR      51  49  92 SW5       30.32S
YANKTON        PTCLDY    55  52  88 NW9       30.27S
$$

MNZ071-072-080-081-089-090-097-098-281200-
SOUTHWEST MINNESOTA

CITY           SKY/WX    TMP DP  RH WIND       PRES   REMARKS
FAIRMONT       CLOUDY    61  55  82 NW6       30.20S
JACKSON        CLOUDY    59  55  88 NW5       30.22S
LUVERNE        CLOUDY    59  54  82 NW6       30.24S
MARSHALL       MOCLDY    61  55  82 NW9       30.22S
MONTEVIDEO     CLOUDY    61  57  88 N6        30.24S
PIPESTONE      PTCLDY    55  54  94 N7        30.24S
REDWOOD FALLS  LGT RAIN  62  60  93 NW5       30.21R
TRACY          LGT RAIN  60  58  92 NW9       30.23S
WINDOM         CLOUDY    61  57  88 NW5       30.22R
WORTHINGTON    CLOUDY    57  55  94 NW8       30.23S
$$

IAZ001>003-012>014-020>022-031-032-NEZ013-014-SDZ071-281200-
NORTHWEST IOWA

CITY           SKY/WX    TMP DP  RH WIND       PRES   REMARKS
CHEROKEE       MOCLDY    56  55  99 N6        30.23R
DENISON        CLEAR     55  55 100 CALM      30.20S
ESTHERVILLE    CLOUDY    59  58  96 N8        30.21R
LE MARS        CLOUDY    59  55  88 NW8       30.24S
ORANGE CITY    CLEAR     59  54  82 NW7       30.24R
SHELDON        CLOUDY    57  55  94 NW7       30.23R
SIOUX CITY     CLEAR     56  53  90 CALM      30.24R
SPENCER        CLOUDY    57  55  93 NW7       30.22R
STORM LAKE     CLOUDY    55  55 100 NW8       30.22S
$$

ABBREVIATIONS USED IN REMARKS
   TC - TEMPERATURE IN CELSIUS
  WCI - WIND CHILL INDEX
   HX - HEAT INDEX
  VSB - VISIBILITY



USA.gov is the U.S. government's official web portal to all federal, state and local government web resources and services.